Regional Weather Roundup
Issued by NWS

Home | Current Version | Previous Version | Text Only | Print | Product List | Glossary On
Versions: 1 2 3 4 5 6 7 8 9 10 11 12 13 14 15 16 17 18 19 20 21 22 23 24 25 26 27 28 29 30 31 32 33 34 35 36 37 38 39 40 41 42 43 44 45 46 47 48 49 50
000
ASUS44 KFWD 280303
RWRTX
NORTH TEXAS HOURLY WEATHER ROUNDUP
NATIONAL WEATHER SERVICE FORT WORTH TX
1000 PM CDT SUN MAY 27 2018

NOTE: "FAIR" INDICATES FEW OR NO CLOUDS BELOW 12,000 FEET WITH NO
SIGNIFICANT WEATHER AND/OR OBSTRUCTIONS TO VISIBILITY.

TXZ118-119-280400-
DALLAS/FORT WORTH METROPLEX

CITY           SKY/WX    TMP DP  RH WIND       PRES   REMARKS
DFW AIRPORT    FAIR      86  67  52 E10       29.81R
DALLAS LOVE    FAIR      87  67  51 E10       29.82R HX  90
FTW MEACHAM    FAIR      90  68  48 E12       29.82R HX  94
DAL-EXECUTIVE  FAIR      86  68  54 E8        29.82R
FTW-ALLIANCE   FAIR      87  67  51 E7        29.82R HX  90
FTW-NAS-JRB    FAIR      89  65  44 SE10      29.82R HX  91
FTW-SPINKS     FAIR      79  69  71 E3        29.84R
ARLINGTON      MOCLDY    87  70  56 E8        29.83R HX  92
GRAND PRAIRIE  FAIR      86  66  50 E7        29.84R
MESQUITE       FAIR      82  66  57 E7        29.83R
LANCASTER      FAIR      81  69  67 CALM      29.84R
$$

TXZ091>094-102>105-117-120-121-131>134-280400-
NORTH CENTRAL TEXAS

CITY           SKY/WX    TMP DP  RH WIND       PRES   REMARKS
SHRMAN/DENISON FAIR      78  69  73 E5        29.87R
GAINESVILLE    FAIR      79  67  66 E7        29.87R
BOWIE          FAIR      79  68  68 E5        29.85R
BRIDGEPORT     FAIR      84  65  53 E3        29.85R
DECATUR        FAIR      82  67  61 E3        29.84R
DENTON         FAIR      85  67  54 E10       29.83R
MCKINNEY       FAIR      81  68  64 E3        29.84R
BONHAM         FAIR      77  70  79 E5        29.86R
GREENVILLE     FAIR      81  70  69 CALM      29.85R
ROCKWALL       FAIR      80  70  70 E5        29.84R
TERRELL        FAIR      81  68  64 E5        29.84R
WAXAHACHIE     FAIR      82  71  68 E3        29.85R
GRANBURY       FAIR      86  69  56 E6        29.83R HX  90
$$

TXZ083>090-098>101-113>116-127>130-139>142-154-155-280400-
WESTERN NORTH TEXAS

CITY           SKY/WX    TMP DP  RH WIND       PRES   REMARKS
WICHITA FALLS  FAIR      81  70  69 E12       29.81R
WF-KICKAPOO    FAIR      82  70  65 E14       29.84R
VERNON         FAIR      87  68  52 SE12      29.82R HX  90
ABILENE        FAIR      86  64  47 SE16      29.82R
ABILENE-DYESS  FAIR      89  58  35 E16       29.81R
GRAHAM           N/A     84  66  54 E6        29.81R
BRECKENRIDGE   FAIR      87  64  45 SE12      29.82R
CISCO          FAIR      84  64  51 SE9       29.84R
EASTLAND       FAIR      83  66  55 E8        29.83R
RANGER         FAIR      83  65  55 SE8       29.84R
MINERAL WELLS  FAIR      81  67  62 SE6       29.81R
STEPHENVILLE   FAIR      82  67  60 E8        29.86R
COMANCHE       FAIR      83  67  58 MISG      29.83R
BROWNWOOD      FAIR      84  64  51 SE13      29.82R
COLEMAN        FAIR      87  60  39 SE10      29.83R
BRADY          FAIR      86  61  42 SE8       29.84R
$$

TXZ143>147-156>162-174-175-280400-
CENTRAL TEXAS

CITY           SKY/WX    TMP DP  RH WIND       PRES   REMARKS
WACO           FAIR      84  70  62 E12G21    29.81R
WACO-TSTC      CLEAR     82  72  69 E6        29.81R
WACO-MCGREGOR  FAIR      86  69  56 E10       29.82R HX  90
HILLSBORO      FAIR      82  71  68 E7        29.82R
CORSICANA      FAIR      79  71  76 SE7       29.83R
MEXIA          FAIR      78  70  76 E5        29.82R
HEARNE         FAIR      82  73  72 E3        29.81R
CAMERON        FAIR      84  71  63 SE3       29.80R
TEMPLE         MOCLDY    84  71  65 SE5       29.81R
KILLEEN        NOT AVBL
FORT HOOD      FAIR      85  68  56 SE7       29.78R
GATESVILLE     FAIR      82  70  65 CALM      29.83R
HAMILTON       FAIR      83  67  58 SE6       29.85R
LAMPASAS       FAIR      82  68  63 SE3       29.82S
$$

TXZ095>097-106>112-122>126-135>138-148>153-164>167-280400-
EAST TEXAS

CITY           SKY/WX    TMP DP  RH WIND       PRES   REMARKS
PARIS          FAIR      77  72  84 E5        29.87R
SULPHUR SPRNGS FAIR      79  68  68 CALM      29.87R
MOUNT PLEASANT FAIR      79  71  76 CALM      29.86R
GILMER         FAIR      79  71  76 CALM      29.85R
MINEOLA        FAIR      75  70  83 E7        29.84R
TYLER          FAIR      82  70  66 SE7       29.84R
LONGVIEW       FAIR      79  72  79 SE5       29.83R
MARSHALL       FAIR      73  69  89 CALM      29.87R
ATHENS         FAIR      77  72  83 CALM      29.82R
PALESTINE      FAIR      76  76 100 CALM      29.85R
JACKSONVILLE   FAIR      78  74  86 CALM      29.87R
HENDERSON      FAIR      78  70  76 E3        29.86R
CENTER         FAIR      74  71  92 CALM      29.85R
NACOGDOCHES      N/A     75  73  93 CALM      29.85R
LUFKIN         FAIR      77  72  84 CALM      29.83R
$$

SUPPLEMENTAL OBSERVATIONS (NWS FORT WORTH AREA)

CITY           SKY/WX    TMP DP  RH WIND       PRES   REMARKS
$$

SUPPLEMENTAL OBSERVATIONS (NWS NORMAN AREA)

CITY           SKY/WX    TMP DP  RH WIND       PRES   REMARKS
$$

SUPPLEMENTAL OBSERVATIONS (NWS SAN ANGELO AREA)

CITY           SKY/WX    TMP DP  RH WIND       PRES   REMARKS
$$

SUPPLEMENTAL OBSERVATIONS (NWS SHREVEPORT AREA)

CITY           SKY/WX    TMP DP  RH WIND       PRES   REMARKS
$$

SUPPLEMENTAL OBSERVATIONS ARE A COLLECTION OF AUTOMATED INSTRUMENTS
THAT ARE MAINTAINED BY A VARIETY OF FEDERAL AND STATE AGENCIES.
CERTAIN ELEMENTS...SUCH AS HUMIDITY VALUES AND SUSTAINED WIND
SPEEDS...MAY BE APPROXIMATED.





USA.gov is the U.S. government's official web portal to all federal, state and local government web resources and services.